Facebook Twitter

Wetterstation Lechfeld

Messwerte
  Temperatur Wetter Niederschlag Luftdruck Wind
Mo, 00:20 Uhr 14° - - 1008 hPa 10 km/h S
Mo, 00:00 Uhr 12° - - 1008.1 hPa 11 km/h S
So, 23:20 Uhr 14° - - 1008 hPa 14 km/h S
So, 23:00 Uhr 14° - - 1007.6 hPa 7 km/h S
So, 22:20 Uhr 17° - - 1008 hPa 8 km/h W
So, 22:00 Uhr 18° - - 1006.6 hPa 11 km/h W
So, 21:20 Uhr 17° - - 1007 hPa 8 km/h O
So, 21:00 Uhr 17° - - 1006.2 hPa 11 km/h NO
So, 20:20 Uhr 20° - - 1007 hPa 16 km/h NO
So, 20:00 Uhr 22° - 0 mm 1005.2 hPa 18 km/h NO
So, 19:20 Uhr 23° - - 1007 hPa 23 km/h NO
So, 19:00 Uhr 24° - - 1004.8 hPa 22 km/h NO
So, 18:20 Uhr 24° - - 1007 hPa 24 km/h NO
So, 18:00 Uhr 25° - - 1004.8 hPa 25 km/h NO
So, 17:20 Uhr 25° - - 1008 hPa 26 km/h NO
So, 17:00 Uhr 26° - - 1005.3 hPa 14 km/h O
So, 16:20 Uhr 27° - - 1009 hPa 13 km/h O
So, 16:00 Uhr 26° - - 1006 hPa 14 km/h O
So, 15:20 Uhr 26° - - 1010 hPa 11 km/h O
So, 15:00 Uhr 26° - - 1007.2 hPa 14 km/h O

Alle Zeitangaben MESZ